Location: La Estaci�n
(40.6294°N, 4.0073°W)
Time: 22:56:29
(UTC+00:00)

Daily predictions for brighter satellites

Satellite Brightness Start Highest point End
(mag) Time Altitude Azimuth Time Altitude Azimuth Time Altitude Azimuth
COSMOS 2406 3.3 17:07:05 10° SSW 17:12:46 68° ESE 17:18:29 10° NNE
CZ-2C R/B 2.9 17:14:52 10° SSE 17:19:47 88° ENE 17:24:35 10° NNW
Cosmos 1782 3.3 17:17:17 10° SSE 17:20:59 38° E 17:24:42 10° NNE
USA 267 3.5 17:18:00 10° NE 17:24:29 68° NW 17:30:57 10° WSW
Cosmos 1092 Rocket 4.1 17:18:23 10° N 17:24:41 60° E 17:30:54 10° SSE
Cosmos 1763 Rocket 4.0 17:20:54 10° SSW 17:25:53 60° WNW 17:30:57 10° NNE
GPS 2-04 Rocket1 3.9 17:22:55 10° WSW 17:26:47 40° S 17:30:39 10° ESE
CZ-2D R/B 4.2 17:24:41 10° SE 17:27:55 26° ENE 17:31:07 10° NNE
CZ-2C R/B 3.7 17:24:47 10° NE 17:28:54 24° E 17:33:01 10° SSE
Cosmos 1500 3.8 17:26:39 10° NNE 17:30:05 33° ENE 17:33:28 10° SE
CZ-4C R/B 3.5 17:24:17 10° NNW 17:30:56 37° NE 17:38:33 10° ESE
H-2A R/B 2.7 17:26:34 10° SE 17:31:09 33° ENE 17:35:37 10° N
CZ-4B R/B 4.0 17:28:16 10° ESE 17:32:43 27° ENE 17:37:07 10° N
Cosmos 841 Rocket 3.5 17:28:08 10° S 17:33:15 68° ESE 17:38:22 10° NNE
Cosmos 1340 Rocket 3.8 17:30:50 10° NNW 17:34:49 54° W 17:38:47 10° S
SMAP 3.0 17:35:58 10° SSE 17:40:37 79° ENE 17:45:17 10° N
Cosmos 2360 4.2 17:35:07 10° NNW 17:40:53 83° ENE 17:46:36 10° SSE
Cosmos 1937 Rocket 3.5 17:36:28 10° NNW 17:41:49 75° ENE 17:47:06 10° SSE
USA 229 DEB 4.1 17:34:50 10° NW 17:42:18 85° WSW 17:50:10 10° SSE
USA 229 4.1 17:34:56 10° NW 17:42:24 86° WSW 17:50:15 10° SSE
Lacrosse 5 rocket 3.1 17:41:11 10° N 17:43:29 15° NNE 17:44:49 13° NE
Cosmos 921 Rocket 4.4 17:40:43 10° SE 17:43:37 18° E 17:45:21 15° ENE
AQUARIUS 4.1 17:40:23 10° SSE 17:44:51 73° ENE 17:49:20 10° N
COSMOS 2455 2.9 17:39:25 10° SSW 17:45:27 87° WNW 17:51:32 10° NNE
COSMO-SKYMED 1 3.4 17:42:24 10° NE 17:46:14 30° E 17:50:02 10° SSE
Cosmos 1627 Rocket 4.4 17:40:44 10° N 17:46:54 76° E 17:53:00 10° SSE
Cosmos 2279 Rocket 4.2 17:42:07 10° SSE 17:48:02 49° E 17:53:59 10° NNE
Cosmos 372 Rocket 4.1 17:44:33 10° N 17:49:43 55° ENE 17:54:51 10° SE
Meteor 2-21 4.4 17:43:42 10° N 17:49:47 71° E 17:55:47 10° SSE
ISS -2.9 17:48:08 10° NW 17:51:16 33° NNE 17:53:03 20° E
Cosmos 1633 Rocket 3.6 17:48:38 10° N 17:52:38 34° ENE 17:56:36 10° SE
Cosmos 44 Rocket 4.5 17:50:14 10° N 17:54:06 23° NE 17:56:04 18° ENE
NOAA 6 4.2 17:49:37 10° S 17:54:45 79° WSW 17:59:55 10° NNW
Meteor 1-26 Rocket 4.4 17:49:40 10° S 17:55:37 88° W 18:01:43 10° N
USA 234 3.3 17:49:45 10° ESE 17:56:12 64° NE 18:02:39 10° NW
SL-24 R/B - RUBIN 2 3.5 17:53:38 10° NNW 17:58:03 59° NE 18:02:18 10° SE
Cosmos 1151 Rocket 3.0 17:54:47 10° S 17:59:00 58° E 18:03:17 10° NNE
Cosmos 1666 3.0 17:55:52 10° N 17:59:23 40° ENE 18:02:53 10° SSE
PSLV R/B 3.5 17:56:16 10° SSE 17:59:55 75° ENE 18:03:39 10° N
Cosmos 1634 Rocket 4.2 18:00:02 10° SSW 18:06:20 75° W 18:12:42 10° N
Cosmos 1900 4.3 18:03:38 10° SSW 18:08:25 63° ESE 18:11:48 20° NE
X-37B 2.2 18:07:38 10° SSW 18:09:44 19° SE 18:10:00 18° SE
NOSS 2-2 (D) 4.5 18:04:41 10° NNW 18:10:13 79° NE 18:18:02 10° SE
Okean O Rocket 2.0 18:07:11 10° SE 18:11:21 41° ENE 18:15:34 10° N
Cosmos 2026 Rocket 4.3 18:07:25 10° NNW 18:13:30 69° W 18:19:29 10° S
Cosmos 2322 Rocket 3.5 18:10:15 10° N 18:13:53 20° NE 18:13:53 20° NE
Cosmos 1697 Rocket 3.8 18:09:44 10° NW 18:15:05 47° WSW 18:20:25 10° S
Landsat 5 3.6 18:16:56 26° NE 18:18:48 45° E 18:22:35 10° S
Cosmos 1812 3.0 18:15:26 10° SSW 18:19:15 68° W 18:23:06 10° N
Cosmos 1666 Rocket 3.5 18:15:02 10° N 18:19:29 84° E 18:23:52 10° S
Cosmos 1328 Rocket 3.5 18:15:18 10° S 18:19:42 70° E 18:24:03 11° NNE
Cosmos 1980 Rocket 2.2 18:14:23 10° NNW 18:20:04 86° WSW 18:25:41 10° SSE
SJ-11-01 4.3 18:16:35 10° SSE 18:21:13 56° ENE 18:25:52 10° N
APEX 3.7 18:18:15 10° S 18:22:02 35° ESE 18:22:09 35° ESE
Cosmos 1470 Rocket 3.9 18:18:32 10° N 18:22:47 42° ENE 18:27:01 10° SSE
MOS 1-B 4.4 18:17:15 10° SSE 18:23:01 85° WSW 18:28:51 10° NNW
Cosmos 2369 4.2 18:18:53 10° NNW 18:24:33 62° WSW 18:30:09 10° S
Meteor 1-5 Rocket 4.3 18:24:25 10° N 18:30:26 89° E 18:36:18 10° S
Cosmos 1570 Rocket 4.2 18:25:26 10° SSW 18:30:39 71° WNW 18:35:27 12° NNE
Cosmos 2082 Rocket 3.2 18:27:35 10° SW 18:33:02 45° WNW 18:38:28 10° NNE
Meteor 2-8 Rocket 4.4 18:26:57 10° S 18:33:05 84° E 18:39:17 10° N
SL-16 R/B 2.7 18:27:58 10° N 18:33:07 34° ENE 18:33:21 34° ENE
Meteor 1-14 Rocket 4.4 18:27:19 10° NNW 18:33:11 78° W 18:39:07 10° S
SKYMED 2 3.6 18:30:16 11° N 18:34:24 79° WNW 18:38:44 10° SSW
ATLAS CENTAUR R/B 4.1 18:27:13 10° W 18:34:46 28° NW 18:37:45 15° N
Cosmos 2298 Rocket 4.2 18:31:38 10° N 18:36:47 47° ENE 18:38:49 32° ESE
Cosmos 1655 Rocket 4.0 18:30:51 10° N 18:37:10 59° E 18:43:24 10° SSE
CZ-2C R/B 2.5 18:37:49 10° SW 18:41:28 28° SSE 18:42:01 27° SSE
DMSP B5D2-2 4.3 18:42:38 44° E 18:43:08 46° E 18:48:09 10° S
ARGOS 3.1 18:39:43 10° SSE 18:45:08 88° WSW 18:50:35 10° NNW
Cosmos 2278 3.9 18:42:32 10° NNW 18:48:13 71° WSW 18:53:51 10° SSE
Cosmos 1818 3.5 18:42:49 10° NNW 18:48:16 63° NE 18:49:43 46° ESE
deb Chang Zheng 4 4.1 18:47:50 10° S 18:52:04 58° WSW 18:56:20 10° NNW
GEOS 3 Rocket 4.4 18:54:52 35° NNE 18:54:52 35° NNE 18:58:40 10° NNW
Cosmos 836 Rocket 4.5 18:49:27 10° S 18:54:39 60° ESE 18:54:58 59° E
CZ-4C R/B 4.2 18:56:15 34° SSW 18:56:15 34° SSW 18:58:16 10° SSW
Meteor 1-27 Rocket 3.5 18:55:39 10° S 19:01:07 67° E 19:01:42 62° ENE
Cosmos 1515 Rocket 3.7 18:58:46 10° SSW 19:03:12 73° W 19:04:04 55° NNW
SL-08 RB Rocket 3.8 18:59:39 10° S 19:04:17 77° WSW 19:08:55 10° NNW
IRAS Rocket 4.3 19:04:56 56° SE 19:04:56 56° SE 19:09:50 10° S
Cosmos 1867 3.7 19:03:53 10° SSW 19:08:41 59° SSE 19:08:41 59° SSE
CZ-2C R/B 3.8 19:04:31 10° N 19:09:20 40° WNW 19:14:07 10° SW
H-2A R/B 4.0 19:06:05 10° SSW 19:10:32 29° W 19:14:56 10° NW
CZ-4B R/B 4.4 19:08:00 10° SSW 19:13:04 40° W 19:18:05 10° NNW
Cosmos 2150 Rocket 3.9 19:08:31 10° NNW 19:13:43 88° WSW 19:13:51 85° S
CZ-4C R/B 3.5 19:12:30 10° NW 19:19:58 62° WSW 19:28:26 10° SSE
USA 32 4.1 19:14:58 10° S 19:20:10 74° W 19:20:55 63° NNW
Cosmos 921 Rocket 4.4 19:17:47 10° SW 19:21:36 34° WNW 19:22:11 32° NW
Lacrosse 5 rocket 3.4 19:19:09 10° NW 19:20:27 20° NW 19:20:27 20° NW
ISS -0.9 19:25:00 10° WNW 19:26:04 17° W 19:26:04 17° W
Cosmos 1125 Rocket 3.8 19:23:27 10° NNW 19:27:56 61° NW 19:27:56 61° NW
Cosmos 44 Rocket 4.3 19:31:13 10° NW 19:34:51 42° WNW 19:34:51 42° WNW
Cosmos 2360 Rocket 4.2 19:32:50 10° NNW 19:33:59 16° N 19:33:59 16° N
USA 234 4.5 19:33:27 10° SSE 19:39:24 37° SW 19:45:22 10° WNW
Okean O Rocket 4.3 19:44:51 10° SW 19:47:52 18° W 19:50:54 10° NW
Cosmos 2322 Rocket 3.8 19:53:16 10° NNW 19:55:46 27° NW 19:55:46 27° NW
SL-16 R/B 4.0 20:12:06 10° NW 20:15:18 27° WNW 20:15:18 27° WNW
